RH
12 12 13 13 13 13 12 11 12 11 11 9 8 7 5 5 4 15 36 39 45 60 57 57 70 75 79 82 79 82 89 93 99 99 97 95 91 90 95 99 100 100 100 96 89 81 75 72 70 66 57 42 34 33 32 30 26 20 16 14 13 11 10 10 9 10 11 12 12 10 7 5 5 5
14 13 14 15 15 14 12 12 12 12 12 10 8 7 6 6 6 24 48 47 51 69 68 65 76 80 80 78 76 83 90 93 98 101 100 97 95 95 97 100 100 99 99 98 93 84 77 73 70 64 54 44 39 40 41 42 38 31 25 20 16 13 11 11 10 10 10 12 13 13 10 7 6 6
15 14 15 16 16 15 14 12 10 12 13 10 9 7 7 6 9 35 59 52 54 74 77 73 78 81 80 72 68 81 90 91 94 95 94 96 97 97 100 101 100 99 100 100 95 86 80 76 69 62 54 47 47 50 53 54 52 46 39 30 23 17 15 12 10 10 10 11 13 14 14 12 9 7
15 16 17 18 18 16 15 13 12 12 12 11 9 7 8 6 14 46 68 60 63 82 85 81 83 85 82 67 59 74 87 88 92 92 89 94 98 98 101 99 94 95 100 100 95 88 83 78 69 62 56 53 56 60 62 62 60 58 53 45 36 28 22 16 13 11 10 10 12 14 15 15 13 10
17 17 18 19 20 18 17 15 13 12 12 12 9 8 8 5 23 63 80 72 76 88 89 87 87 89 89 77 66 75 87 88 89 92 93 97 100 98 100 96 88 92 100 100 95 89 84 78 69 63 60 60 63 64 64 63 62 62 61 57 50 41 32 23 16 12 10 10 11 13 15 17 17 15
22 22 21 21 21 20 19 16 14 12 12 11 9 10 8 5 31 76 91 85 90 96 94 92 91 91 90 86 86 90 92 85 81 90 99 100 100 99 100 98 92 93 100 101 96 90 85 77 69 64 63 64 64 63 62 62 62 62 62 62 59 52 42 30 20 14 11 10 11 12 15 17 18 18
29 28 26 25 24 23 21 18 17 14 12 13 11 11 10 7 27 71 94 94 98 101 98 93 91 92 87 83 91 96 88 77 78 92 101 100 100 100 99 99 97 97 101 102 97 91 85 77 69 64 63 62 61 59 58 59 60 61 62 62 61 58 51 38 26 18 13 11 11 12 13 16 18 19
34 34 33 31 29 26 24 21 20 18 14 15 14 12 13 8 15 55 91 100 99 100 101 97 93 95 93 88 92 94 81 72 79 93 101 100 100 99 99 100 100 100 101 100 96 90 84 76 68 63 61 59 59 58 58 58 59 59 61 62 62 61 57 47 36 25 17 12 12 12 13 15 17 19
34 35 35 35 34 31 29 26 23 21 18 17 17 14 15 11 13 48 88 100 100 100 100 99 97 97 99 96 94 91 80 73 82 91 96 99 100 99 100 99 99 100 101 97 92 88 83 76 68 62 59 59 60 60 60 59 58 58 59 61 62 61 58 52 42 32 23 16 13 11 12 13 15 18
33 34 34 34 34 33 32 30 26 25 22 19 20 17 16 13 13 42 81 93 96 102 101 99 99 99 101 99 96 91 79 76 88 95 97 100 100 100 100 99 100 101 99 93 88 88 88 81 71 64 62 64 67 67 64 61 59 58 59 61 62 63 60 53 43 33 26 20 14 12 11 12 13 16
30 32 33 33 33 33 32 31 28 26 24 22 22 19 18 17 10 30 77 97 93 95 100 101 100 99 100 99 100 97 85 79 87 95 100 100 98 100 101 99 100 101 99 94 90 90 92 87 75 66 66 70 73 70 67 64 60 57 58 60 62 65 65 57 45 33 25 19 14 12 11 11 12 14
20 23 26 28 30 31 32 32 29 27 25 23 24 21 19 20 12 21 64 98 100 96 98 100 100 99 100 100 100 99 91 83 82 88 96 98 96 98 99 99 100 101 98 96 94 92 92 88 79 70 71 77 79 76 72 67 62 57 57 60 63 67 70 64 50 35 26 18 13 12 12 11 12 12
11 13 16 18 21 24 27 30 30 29 27 23 24 24 20 20 17 14 32 66 91 100 99 99 101 101 99 100 100 96 91 88 87 87 90 93 95 94 91 92 96 99 97 95 97 95 90 88 85 80 80 84 83 80 75 69 62 57 57 60 64 70 75 72 57 40 28 20 14 13 13 12 12 13
5 6 8 9 11 14 17 22 26 28 29 26 23 24 22 20 21 17 15 30 58 85 97 98 100 101 100 100 101 98 95 94 92 90 90 93 95 92 87 86 90 95 96 96 99 95 88 87 89 88 87 88 85 80 75 68 62 57 56 58 62 68 74 76 70 56 39 26 17 14 14 13 13 13
3 3 3 4 5 7 9 13 17 21 26 28 26 25 24 21 20 20 17 17 31 63 93 100 98 100 101 100 100 100 100 97 91 90 93 95 96 93 88 87 91 95 97 98 101 98 90 87 90 92 91 88 85 83 79 72 64 57 56 57 59 64 69 74 76 71 59 43 27 17 13 14 14 13
3 2 2 2 2 3 4 6 9 13 18 23 26 27 25 24 22 20 20 18 19 43 82 102 100 98 100 100 100 100 100 99 97 92 88 88 91 91 86 85 92 98 97 96 98 97 93 88 86 90 91 87 85 86 83 78 68 58 55 55 56 60 65 69 72 73 71 62 47 31 18 13 12 12
3 2 2 2 2 2 2 2 4 6 9 14 20 25 26 26 25 22 20 20 17 26 61 93 100 97 99 100 99 100 100 100 100 94 86 84 87 87 85 86 94 101 97 92 92 94 95 94 92 91 89 84 83 86 87 84 74 62 55 53 53 55 59 62 66 68 70 70 65 54 37 22 14 11
3 2 2 2 2 2 2 2 2 2 4 7 12 18 23 25 26 25 22 22 19 19 42 77 96 97 98 100 99 100 101 100 99 96 91 88 88 90 93 94 96 100 96 90 93 96 94 94 96 95 90 83 81 84 86 84 76 66 58 54 53 54 55 57 61 63 64 67 70 69 60 44 28 17
3 3 3 2 2 2 2 2 2 2 2 3 5 11 18 22 25 26 24 22 21 18 28 61 92 100 98 99 100 100 101 101 99 97 93 91 91 94 98 96 92 95 95 91 94 97 92 90 93 93 89 85 84 83 81 79 75 69 63 60 58 57 55 55 57 59 62 66 71 76 75 67 54 41
3 3 3 3 2 2 2 2 2 2 1 2 3 5 10 17 22 25 25 22 22 21 21 42 80 101 99 98 101 100 100 101 100 97 94 93 94 96 99 98 93 93 94 90 90 95 94 93 96 96 93 94 97 94 87 82 79 75 72 70 67 62 58 56 55 57 60 65 71 77 80 79 73 65
4 3 3 3 2 2 3 2 2 2 2 2 2 2 5 11 17 23 26 23 22 24 21 28 59 91 100 98 100 101 100 101 101 99 96 96 97 100 102 101 98 97 95 89 87 89 91 95 99 97 92 91 93 92 91 89 86 83 82 80 74 69 65 61 57 55 57 63 70 73 75 75 72 67
3 3 3 3 2 2 2 2 2 2 2 2 2 2 2 6 13 19 24 25 24 25 24 22 38 74 97 99 98 101 101 100 101 100 98 98 100 101 100 100 102 99 92 86 84 83 84 92 98 97 92 87 83 82 86 89 89 89 90 89 83 78 74 69 61 54 53 56 62 65 66 65 64 62
3 3 3 3 3 3 2 2 2 2 2 2 1 2 2 2 9 16 20 25 25 24 30 30 30 57 92 102 99 99 100 100 100 100 100 101 100 100 100 100 101 94 86 87 91 87 86 91 96 98 98 95 94 92 90 92 96 98 98 96 90 83 78 74 66 59 54 54 58 62 64 64 64 63
3 4 4 4 3 4 3 3 3 2 2 3 1 3 3 1 5 13 18 25 25 24 36 43 38 57 91 103 99 100 99 99 101 100 100 101 100 100 101 100 100 96 91 94 97 93 91 91 93 98 98 93 92 94 93 96 101 102 101 99 91 83 80 79 75 71 67 66 68 71 74 75 78 79
4 4 4 4 4 5 4 3 4 3 2 3 2 2 3 1 3 10 17 24 25 25 33 38 42 68 99 102 97 101 100 98 100 100 99 101 99 99 101 100 101 99 94 93 93 91 91 92 94 96 93 85 82 84 90 99 102 100 100 96 88 81 80 81 82 82 81 82 83 84 86 89 91 89
4 4 5 4 4 5 4 4 4 4 3 3 3 2 3 2 2 8 16 23 26 28 32 30 36 67 98 102 97 101 101 99 100 100 99 100 99 99 100 100 101 100 98 97 95 90 89 92 96 96 90 83 82 85 92 99 101 100 100 97 91 88 87 87 91 93 93 93 94 94 96 96 93 87
5 4 4 5 5 5 5 4 4 4 4 4 3 2 3 2 1 7 16 24 27 30 33 33 33 52 84 101 100 99 100 100 100 100 100 100 99 100 100 100 100 99 99 101 97 89 86 88 91 93 89 86 90 96 99 101 101 101 101 100 99 98 98 99 101 100 98 98 97 96 98 97 91 83
5 5 4 5 5 5 6 5 5 5 5 5 4 3 3 3 2 6 15 24 30 32 34 36 34 38 66 95 102 98 100 101 99 100 101 99 100 100 100 100 101 100 100 100 99 96 92 89 87 86 83 83 91 99 100 100 101 101 100 101 101 100 100 102 101 100 99 98 95 94 94 91 83 75
5 5 5 5 5 5 6 6 6 6 5 5 5 4 3 3 2 6 15 22 30 35 36 39 37 36 56 88 101 99 100 100 99 100 100 100 100 100 100 100 100 101 101 100 100 100 95 92 91 86 80 82 93 100 100 100 101 101 101 101 101 101 101 101 100 100 98 94 90 88 86 81 74 68
7 7 7 7 6 6 6 6 7 8 6 6 7 4 5 4 2 6 16 22 28 36 40 42 42 44 61 89 101 99 100 101 100 100 100 100 100 99 100 101 100 100 101 100 100 101 98 97 98 94 88 91 98 101 100 101 101 101 99 95 92 92 94 97 98 97 92 89 86 82 76 70 66 65
7 8 10 10 8 7 7 7 8 8 7 7 7 5 5 4 3 5 13 21 28 34 41 50 53 52 68 93 102 99 100 101 100 100 100 99 100 100 99 100 100 100 101 100 99 100 100 100 101 99 97 97 99 100 101 102 102 101 97 91 89 92 95 96 95 93 91 89 83 75 70 69 70 72
7 10 14 16 14 13 12 10 9 10 10 9 8 7 6 5 4 6 10 18 28 34 42 55 56 50 67 95 103 98 100 101 99 100 100 99 100 100 99 100 100 99 100 101 100 100 100 100 100 100 100 98 98 100 101 100 101 99 94 91 95 100 101 99 99 99 95 89 82 79 81 86 89 88
8 11 17 20 20 18 16 14 12 11 9 9 9 8 8 5 4 6 9 13 22 33 47 57 54 53 70 92 98 97 101 101 99 100 100 100 100 100 99 99 100 100 100 100 100 100 100 100 100 100 100 99 98 100 101 100 102 101 97 94 94 96 98 101 101 98 92 87 88 93 97 98 99 97
8 13 19 22 21 19 17 16 15 12 12 15 14 10 9 9 6 4 8 13 17 30 49 59 58 65 77 80 82 93 101 100 99 100 100 100 100 100 100 100 99 100 100 100 100 100 100 100 100 100 98 95 94 96 99 99 100 100 97 90 82 82 89 94 94 91 90 92 98 101 100 100 100 98
9 12 19 23 23 21 19 18 16 14 14 19 22 17 8 7 9 5 4 10 14 25 50 65 62 65 75 77 81 95 102 99 99 100 99 100 100 99 100 100 99 99 100 100 100 100 100 100 100 101 100 97 95 97 98 97 97 98 97 90 84 85 92 95 94 95 97 99 100 100 99 100 100 99
9 10 16 22 25 24 23 20 18 19 16 21 45 58 36 15 18 20 14 16 18 19 44 74 74 62 66 77 85 94 100 100 100 100 99 99 100 100 100 100 100 100 100 100 100 100 100 100 100 100 100 99 99 100 100 98 99 100 99 96 93 95 98 98 98 99 100 100 100 100 100 100 100 99
9 9 12 20 25 26 26 23 20 23 19 19 52 90 82 51 39 32 22 37 54 45 45 73 88 74 67 73 77 83 95 101 99 99 101 100 99 100 100 100 101 100 99 100 100 99 100 100 100 100 101 100 99 99 100 100 100 100 100 99 98 98 100 100 100 100 100 100 100 100 100 100 100 100
9 9 10 16 22 25 28 27 24 26 25 20 37 75 96 92 75 46 19 28 53 53 43 61 85 86 78 75 72 76 91 102 99 98 101 101 99 101 100 99 100 101 99 100 100 100 100 100 99 100 100 100 100 100 100 99 99 99 100 101 101 100 101 100 100 100 99 100 100 100 100 100 100 101
9 9 9 12 18 22 26 28 27 27 28 27 29 45 73 96 101 83 55 35 31 32 35 52 78 91 90 86 80 77 84 97 101 100 101 101 100 100 100 99 100 100 99 100 100 100 100 100 99 100 100 99 100 100 100 100 100 100 101 101 100 100 100 100 100 100 100 100 100 100 100 100 100 101
10 10 9 9 14 20 23 25 28 27 28 30 27 26 45 76 97 103 97 78 55 39 34 43 69 93 99 97 96 91 87 93 99 100 100 100 100 99 99 99 100 100 100 100 100 100 100 99 99 99 99 99 100 100 100 100 100 100 100 100 100 100 100 100 100 100 100 100 100 100 100 100 100 100
11 10 10 9 9 15 20 23 26 27 27 30 31 26 30 48 69 85 97 100 91 79 65 57 67 89 100 99 100 99 97 97 98 96 96 98 100 100 100 99 99 100 100 100 99 99 100 100 100 100 100 100 100 100 100 100 100 100 101 100 100 100 100 99 100 100 101 100 100 100 100 100 100 100
14 11 11 10 8 10 15 20 24 26 25 28 34 34 30 30 39 58 81 96 99 99 97 89 82 85 93 98 98 98 99 101 100 97 97 99 100 100 100 100 100 100 100 100 100 99 99 100 100 100 100 100 100 100 100 100 100 100 100 100 100 100 100 100 101 101 100 100 100 100 100 99 99 100
17 14 12 12 10 9 10 14 19 24 25 25 29 35 39 39 41 51 70 89 97 98 99 98 91 85 87 92 94 96 98 101 101 99 99 100 101 100 99 100 101 100 99 100 100 100 100 100 100 100 100 100 100 100 100 100 100 100 100 100 100 100 100 100 100 100 100 100 100 100 100 99 100 100
21 18 15 13 12 10 9 10 12 16 21 23 24 28 35 41 46 48 55 70 88 97 100 100 96 90 87 88 90 91 93 97 100 101 101 100 101 102 101 100 100 100 99 99 100 100 100 100 100 100 100 100 100 100 100 100 100 100 100 100 100 100 100 100 100 100 100 100 100 100 100 100 100 100
24 22 18 16 15 13 11 10 10 11 14 18 22 25 26 30 36 42 45 50 61 76 89 98 101 99 96 94 93 92 92 93 95 98 99 99 99 100 102 101 101 100 100 100 100 100 100 100 100 100 100 100 100 100 100 100 100 100 100 100 100 100 100 100 100 100 100 100 100 100 100 100 100 100
Wind_Speed
39 38 38 38 38 38 38 38 39 40 40 40 40 40 39 39 39 38 36 32 31 33 34 33 34 35 35 33 32 31 32 33 34 35 33 32 32 31 30 31 33 33 33 33 32 31 31 30 30 30 28 27 26 25 25 25 26 27 26 26 27 27 27 26 25 24 23 22 22 22 23 23 23 24
41 39 39 39 38 38 38 38 38 39 40 40 40 39 38 39 38 37 35 32 30 32 33 32 33 34 35 35 34 33 33 32 34 35 33 32 33 33 33 33 35 35 35 35 33 32 32 31 31 31 29 28 27 26 27 27 27 27 27 27 27 27 27 27 26 26 25 24 23 23 23 23 24 24
42 40 39 39 39 39 38 38 38 39 39 39 39 39 38 38 38 36 35 31 29 31 33 31 32 33 35 37 36 34 34 34 34 34 33 34 36 37 37 37 37 37 37 37 35 33 33 32 32 31 30 29 29 28 28 28 28 28 28 28 28 28 28 27 27 27 27 26 25 24 24 24 24 25
43 41 40 39 39 39 39 38 38 38 39 39 38 38 37 37 37 35 33 30 28 30 32 31 32 33 35 38 37 35 35 35 36 36 36 38 38 37 38 39 39 39 39 37 36 34 34 33 32 32 31 30 30 30 30 30 29 29 28 28 29 29 29 28 28 29 29 28 27 26 25 25 25 25
42 41 40 39 39 39 38 37 37 38 38 38 37 37 36 35 35 33 32 29 27 29 31 32 32 33 34 36 37 36 35 35 36 38 40 40 38 36 37 40 42 42 40 37 36 35 34 34 33 32 31 31 31 31 31 31 30 30 29 29 29 30 29 29 30 30 30 29 29 28 27 26 25 25
41 41 40 39 39 38 38 37 36 37 37 37 36 36 35 34 32 31 30 29 27 28 31 32 32 33 35 36 37 36 35 34 35 37 39 41 39 37 37 41 44 43 40 37 36 35 35 34 33 33 32 32 32 32 32 32 31 31 30 30 30 30 30 30 31 31 31 31 31 30 29 28 27 27
42 41 40 40 39 39 38 36 36 36 37 36 36 35 35 33 31 29 28 28 28 29 31 33 33 34 36 37 36 36 34 33 32 33 37 39 39 38 39 42 44 42 38 35 35 36 36 35 34 33 33 32 32 31 32 32 32 31 31 31 31 31 31 31 32 32 32 32 32 32 31 30 30 29
42 42 41 41 40 40 39 37 36 36 36 36 35 35 34 33 31 28 27 28 30 30 31 32 34 35 36 37 37 35 34 32 31 31 35 39 39 40 42 44 44 40 36 34 35 36 36 35 35 34 33 32 31 31 31 32 32 32 32 32 32 32 32 32 33 33 32 33 33 33 33 32 31 31
43 43 42 42 41 41 40 39 38 37 37 37 36 35 35 34 31 29 28 28 29 31 32 32 34 36 37 37 37 35 33 32 31 29 31 35 38 41 44 45 43 39 36 34 35 36 36 36 35 34 33 32 31 31 31 32 32 32 32 33 33 32 33 33 33 33 33 33 33 33 33 33 33 32
44 44 44 43 42 42 42 41 40 39 38 37 36 36 35 34 31 28 28 28 29 32 33 31 33 37 38 38 37 36 34 33 31 29 28 31 36 41 42 42 41 39 37 35 35 36 36 36 35 34 33 32 31 31 32 32 33 33 33 33 33 33 33 33 34 33 33 34 34 34 34 33 33 33
46 46 45 45 44 43 43 43 42 41 39 38 37 36 36 35 33 29 28 29 30 31 32 33 35 38 40 39 38 36 36 35 33 31 30 31 34 38 40 40 40 40 39 37 36 36 37 36 36 36 35 33 32 32 33 33 33 33 33 33 33 34 34 34 34 34 34 34 34 34 34 34 34 34
49 49 48 48 47 45 44 44 43 43 42 39 38 37 36 36 33 30 31 33 32 30 31 33 36 38 40 41 40 38 38 37 35 33 32 32 33 35 38 39 40 40 39 38 36 36 37 37 37 37 36 34 32 32 33 34 33 33 33 33 33 34 34 34 34 34 34 34 34 34 35 35 35 34
51 51 51 51 50 49 47 46 45 44 44 42 39 38 38 37 35 32 32 34 34 32 32 32 33 36 40 42 41 40 39 38 36 36 36 36 36 36 38 40 41 41 41 40 38 36 37 38 39 39 37 35 34 34 34 34 34 33 33 33 34 34 34 35 34 34 34 34 34 35 36 36 36 35
50 51 51 52 52 52 51 49 48 46 45 44 42 39 38 38 37 35 33 33 34 35 35 34 33 34 38 41 42 41 40 39 38 39 39 39 38 38 39 40 41 42 42 41 39 38 38 39 40 40 39 38 36 35 34 34 34 34 34 34 35 35 35 35 35 35 35 35 35 36 36 36 36 36
48 49 50 51 52 52 52 51 51 50 48 46 45 42 40 39 38 37 35 34 33 33 34 35 34 33 36 39 42 42 42 42 42 41 41 40 40 41 41 41 41 42 42 41 40 38 39 39 39 39 40 39 38 35 35 35 36 35 35 35 36 36 35 35 36 36 36 36 36 37 37 37 37 37
49 49 49 50 51 52 52 52 52 52 51 49 47 45 42 41 40 39 37 35 34 33 33 33 34 33 34 38 42 44 44 45 44 43 42 42 42 42 42 42 42 42 42 42 40 40 40 40 39 39 39 39 38 37 37 37 37 36 36 36 36 36 36 36 35 36 36 37 37 37 36 36 36 37
51 51 50 51 51 52 53 53 52 52 52 52 51 48 45 43 42 41 39 37 35 34 33 33 33 34 34 37 42 46 47 47 45 44 44 44 43 43 42 43 43 42 43 43 42 41 41 41 39 39 39 39 39 39 39 39 38 37 36 36 36 36 36 36 36 36 36 37 37 36 36 35 36 36
54 53 52 52 52 53 54 54 53 52 52 52 52 51 49 46 44 42 41 39 36 34 34 33 34 35 34 35 39 44 48 49 47 45 45 44 44 44 44 44 45 44 44 44 43 43 42 42 42 41 40 40 41 41 42 41 40 39 37 37 37 37 37 36 36 36 36 36 36 36 36 36 36 36
57 57 56 55 54 54 54 55 55 54 53 53 53 52 51 50 47 44 43 42 39 36 35 34 34 34 34 34 37 41 46 49 49 48 47 46 46 46 46 47 48 48 47 46 46 46 44 43 43 44 45 45 44 44 44 43 41 40 39 38 37 36 36 36 36 35 35 35 36 36 37 37 37 37
61 61 60 58 57 56 55 55 56 56 55 54 53 53 52 51 49 47 44 43 41 38 36 35 35 35 34 35 37 40 44 47 49 49 49 48 48 48 48 49 50 50 48 47 47 47 45 44 44 44 46 46 46 46 46 44 41 41 40 39 37 36 37 37 36 35 35 34 35 35 36 37 38 38
63 64 63 62 60 58 57 56 56 56 56 55 55 54 53 52 51 49 46 44 43 40 38 36 37 37 36 35 36 39 44 46 48 50 50 49 50 51 51 51 51 50 48 47 47 47 46 45 45 44 44 45 46 48 48 46 44 42 42 40 38 38 38 37 37 36 34 34 34 35 36 37 38 39
63 64 64 63 61 59 57 56 56 56 56 56 55 55 54 53 52 51 48 46 44 42 40 37 37 38 38 36 35 37 42 45 48 49 50 51 51 51 52 52 52 51 50 48 49 49 48 46 46 46 45 46 48 49 49 49 47 44 43 42 40 39 38 38 37 36 35 35 35 36 37 38 39 40
61 59 57 58 58 57 56 54 54 55 55 56 56 55 55 54 53 52 50 48 46 44 41 39 38 37 36 35 35 36 39 44 47 49 50 52 52 51 52 53 53 52 51 50 49 50 50 48 48 48 46 46 46 46 47 49 48 45 44 43 41 40 39 38 38 37 37 37 37 38 39 40 40 41
56 52 49 49 51 52 52 51 50 51 53 55 55 55 55 55 54 53 51 49 47 45 42 40 38 36 34 34 35 37 39 42 45 47 49 50 50 50 51 52 52 52 52 51 51 50 50 50 50 49 48 48 48 47 46 45 45 45 44 43 41 40 40 40 39 39 39 39 40 40 40 41 41 41
52 48 45 43 43 45 46 46 46 46 49 52 54 55 55 55 55 54 53 51 48 46 45 42 39 36 35 35 36 38 40 41 42 45 47 47 47 48 50 50 50 51 51 52 52 51 51 50 49 48 48 48 48 48 48 45 44 45 44 42 41 41 41 41 40 40 41 41 40 40 40 41 41 41
50 47 43 39 38 39 40 41 41 41 43 47 51 53 54 55 55 55 54 53 51 48 46 44 41 39 39 38 37 38 40 42 42 43 44 45 46 48 51 51 50 50 50 51 51 51 51 50 48 47 47 47 48 49 51 49 46 45 44 42 41 41 41 41 41 42 42 41 40 40 41 41 41 42
49 44 40 36 34 33 35 37 37 37 38 41 46 50 53 55 56 56 56 55 53 50 48 46 43 42 41 39 37 37 38 41 43 44 44 45 47 48 50 51 51 51 51 51 51 51 51 51 49 48 47 47 47 47 47 47 45 44 43 42 42 43 43 43 43 43 43 42 41 41 42 42 43 43
49 44 38 33 29 28 29 32 33 32 33 36 40 45 50 54 55 56 57 56 55 52 50 47 44 42 41 38 36 36 37 38 41 44 46 46 47 47 49 50 51 51 51 50 50 51 50 49 49 48 47 47 47 45 43 43 43 42 42 42 43 44 44 44 44 44 44 43 42 42 43 44 44 45
49 45 39 33 29 26 25 26 28 28 29 31 34 39 45 51 55 56 56 56 56 53 51 48 45 43 42 39 35 35 36 37 39 42 45 47 48 48 48 49 50 51 51 51 51 50 50 49 47 47 46 47 47 45 44 43 43 42 43 43 44 44 45 45 46 46 46 45 44 44 44 45 45 46
47 43 39 33 29 26 23 21 22 24 26 28 30 33 39 47 52 55 55 55 55 53 51 48 45 42 42 41 36 34 36 38 38 40 43 45 47 49 49 48 49 50 52 52 51 50 50 49 48 47 47 47 46 46 45 44 43 44 44 45 45 45 46 47 48 48 47 46 45 45 45 46 47 47
45 41 37 33 30 27 23 19 17 18 20 23 26 28 34 41 48 53 54 53 53 53 51 47 44 43 42 42 38 35 35 37 38 39 41 43 45 46 47 47 47 49 51 52 51 51 51 51 50 49 47 45 43 44 45 44 44 45 45 45 45 45 46 46 47 47 47 46 46 46 46 47 48 48
45 40 36 33 30 28 25 21 17 14 15 18 20 23 27 34 41 48 50 49 48 50 50 48 46 43 41 41 41 38 34 34 37 39 40 42 43 43 44 45 46 48 49 50 50 50 51 52 51 48 46 44 42 41 40 41 43 44 44 45 46 46 45 46 46 47 47 47 47 47 47 49 50 50
45 41 37 32 28 25 23 20 17 14 13 13 15 17 21 27 34 41 44 44 44 46 47 48 47 45 42 44 47 43 34 28 30 35 39 41 41 41 40 41 43 45 47 48 49 50 51 52 51 49 47 47 46 44 43 41 42 44 45 47 48 48 47 46 46 47 48 48 47 47 48 49 49 48
45 41 37 33 28 24 21 18 15 13 11 10 11 13 16 20 27 34 38 39 39 42 44 46 48 48 46 46 48 47 40 30 26 29 36 39 39 39 39 39 40 42 44 46 47 49 51 51 50 49 48 47 47 48 48 47 46 47 48 50 51 51 50 49 49 50 49 48 46 46 46 46 46 46
45 41 37 34 30 25 21 18 14 12 10 8 8 9 12 15 20 26 32 34 34 38 41 43 47 49 49 46 44 44 42 36 30 28 32 37 39 39 38 38 38 40 42 44 45 47 49 50 50 49 50 49 48 47 48 49 49 50 50 50 50 50 50 51 52 52 50 48 46 45 45 46 48 49
45 42 38 34 30 26 22 18 14 12 9 6 6 8 7 10 14 18 23 26 28 32 37 40 43 48 49 47 43 39 37 36 36 35 34 35 37 38 39 39 38 38 39 41 43 45 47 49 50 50 51 51 52 50 50 49 49 49 49 49 49 49 49 51 52 51 50 48 46 46 47 49 50 51
45 42 39 36 32 27 23 19 15 12 9 5 3 6 6 4 9 14 18 19 21 27 33 36 39 43 47 47 45 40 35 33 33 36 36 36 35 34 35 37 39 39 38 39 39 41 42 45 48 49 50 50 50 51 52 52 52 51 50 49 50 50 50 49 49 49 48 48 48 49 51 53 54 54
45 43 40 37 34 30 25 21 17 13 11 7 3 1 4 5 3 8 15 18 21 25 31 34 36 39 43 45 45 44 40 33 28 29 34 35 34 31 29 32 36 39 39 40 41 41 42 43 45 47 49 49 49 50 50 49 48 48 48 48 49 49 49 48 48 47 47 48 50 51 53 53 54 53
46 44 41 39 36 32 28 23 19 15 12 9 6 3 1 2 3 3 6 12 18 23 27 30 33 35 38 42 44 46 47 42 35 31 30 31 32 32 31 31 33 36 37 38 40 42 43 44 45 46 48 48 49 51 50 47 43 42 43 44 45 46 47 47 47 47 48 50 51 52 51 49 49 48
48 45 43 40 37 34 31 26 22 18 14 10 8 5 3 4 3 2 2 6 11 16 21 26 29 31 33 36 39 42 47 48 44 39 34 31 30 30 30 29 30 32 33 34 37 40 43 44 44 45 46 46 47 49 51 51 49 48 47 46 45 45 46 47 47 47 48 49 50 51 50 49 48 47
49 46 44 41 38 35 33 30 26 21 17 14 11 8 5 5 7 7 7 6 7 9 13 18 24 28 31 33 34 37 40 42 42 42 40 37 33 30 28 26 25 26 29 30 32 36 39 40 40 40 41 41 42 44 46 48 49 49 48 46 45 45 45 44 43 42 42 43 44 46 46 45 45 46
50 48 46 43 40 37 34 32 29 25 21 18 14 12 9 6 5 7 8 9 9 9 10 13 18 24 29 32 34 35 35 36 36 38 41 41 37 33 30 28 27 27 27 27 28 29 31 33 34 35 35 35 36 38 39 41 42 42 42 42 42 41 40 40 39 38 39 39 40 41 42 43 45 47
48 48 47 45 42 40 37 34 31 28 25 21 18 15 13 10 7 5 6 8 10 10 10 12 15 19 24 28 31 33 34 33 33 34 39 42 40 34 29 27 29 30 30 29 28 28 28 28 29 30 30 31 32 32 34 35 36 37 39 40 40 41 41 40 40 41 41 41 42 43 44 46 47 49
45 47 47 46 44 42 39 36 33 30 28 25 21 18 15 13 10 7 6 7 9 10 10 10 11 14 17 21 25 29 32 32 31 31 33 38 41 39 34 31 30 31 31 30 31 31 31 31 30 29 29 29 30 31 32 34 36 37 39 41 43 44 44 44 43 43 43 44 45 46 48 49 50 51
43 44 45 46 45 43 41 39 36 33 30 28 25 22 19 15 13 10 8 7 8 10 11 11 11 12 12 14 17 21 25 29 31 31 31 33 36 37 36 34 32 31 31 30 30 30 32 34 35 34 33 33 33 33 34 34 36 37 39 41 43 45 45 45 44 44 45 46 47 48 49 49 50 50
Wind_Direction
288 287 286 285 285 285 285 285 285 286 287 288 288 289 290 290 289 289 285 275 265 260 257 254 254 254 253 252 251 250 251 252 246 238 237 240 240 239 238 239 241 241 240 239 239 238 238 237 237 237 236 234 233 234 234 236 238 239 240 240 241 241 241 241 241 241 243 246 248 248 248 248 247 246
289 287 286 285 285 284 285 285 284 284 285 287 287 288 289 289 290 289 284 273 262 258 256 254 252 252 252 250 249 249 249 249 244 238 238 241 242 241 237 237 240 240 240 240 237 236 236 235 236 236 235 235 235 235 236 238 239 240 241 241 242 242 243 243 243 243 243 244 247 248 249 250 249 249
289 288 286 285 284 284 285 285 284 283 284 285 286 287 288 289 290 288 281 272 263 257 255 253 251 249 249 249 248 248 249 249 246 242 242 243 244 242 237 235 238 240 240 239 236 234 234 233 235 235 234 235 236 236 238 239 240 241 242 242 243 243 244 244 244 244 243 244 245 248 250 250 251 251
290 288 286 285 284 285 285 285 284 283 283 284 285 286 287 288 290 286 279 272 264 259 256 253 250 246 245 247 248 248 250 251 250 245 242 242 244 244 239 235 238 239 237 237 234 231 232 233 234 234 234 235 236 237 239 240 240 240 242 243 244 245 245 245 245 245 244 244 244 246 249 250 251 251
290 288 286 285 284 284 285 285 283 281 281 282 283 285 286 288 289 285 278 272 266 261 258 255 251 246 244 246 248 249 249 251 252 248 242 240 243 245 239 233 237 237 234 234 233 230 231 232 233 234 234 235 236 238 240 240 240 241 241 243 245 246 247 246 246 246 245 245 244 245 247 249 251 251
290 288 287 285 284 284 284 284 282 280 280 281 282 284 285 287 287 282 278 276 271 264 260 257 253 247 243 244 246 247 247 250 253 248 240 238 240 241 235 231 234 234 229 228 231 230 231 232 232 233 233 234 236 238 240 241 241 242 242 243 245 246 247 247 247 247 247 246 245 245 246 248 249 250
289 287 286 285 284 284 283 282 281 280 279 280 281 283 284 285 284 279 277 279 278 271 263 257 253 247 243 242 243 245 246 249 250 243 235 234 235 234 230 229 231 230 226 227 230 230 231 231 232 233 234 235 236 238 241 242 243 243 243 244 245 246 247 247 248 248 247 247 246 245 246 247 249 250
287 286 285 284 283 283 282 281 280 279 279 279 280 282 283 283 283 277 271 274 277 275 269 261 252 245 242 241 241 243 245 248 249 242 234 233 233 230 227 227 227 226 226 228 230 231 232 232 232 234 234 235 237 240 243 244 244 244 244 244 245 246 247 248 248 249 248 248 248 247 247 247 249 250
286 285 284 283 282 281 281 280 279 278 278 278 279 280 280 281 281 275 267 265 264 264 267 264 254 245 242 240 239 242 246 247 248 245 237 233 231 226 224 224 226 227 229 230 231 232 233 233 234 235 236 237 240 243 245 245 246 246 245 245 246 246 247 248 249 249 249 249 249 249 249 249 250 251
286 285 283 282 281 280 279 279 278 276 276 276 276 277 278 278 278 273 266 265 263 259 263 266 257 245 240 239 238 240 243 244 243 242 235 229 226 222 221 224 227 231 234 234 233 233 234 234 235 235 237 239 242 244 246 246 247 247 246 246 246 247 248 249 250 250 250 250 251 251 251 251 251 252
286 285 284 282 281 280 279 278 277 275 274 273 273 274 275 275 275 272 265 264 266 264 263 265 260 249 240 238 238 239 240 240 239 237 231 225 223 222 223 226 230 232 235 234 233 234 234 233 233 234 236 239 243 246 247 248 248 247 247 246 247 247 248 249 249 249 250 250 251 252 252 252 252 253
286 284 283 281 280 279 278 277 276 275 273 272 270 271 271 271 270 268 263 260 261 261 259 261 261 254 244 238 238 238 238 238 236 235 232 228 226 226 227 228 230 231 233 232 232 233 234 234 234 235 237 240 245 248 249 249 249 249 247 247 247 247 248 249 249 249 249 249 250 251 252 252 253 254
287 285 283 281 279 278 276 275 274 274 273 271 269 267 267 267 266 264 261 259 258 256 254 256 260 257 247 239 238 238 237 236 235 233 231 230 229 230 230 230 230 230 231 232 231 232 234 234 234 235 237 241 244 246 248 249 249 248 247 245 245 246 247 248 248 248 248 248 249 249 251 252 253 255
288 286 284 282 279 277 275 274 273 272 271 270 269 266 264 264 264 262 259 258 258 256 254 252 255 257 250 240 237 236 234 234 234 232 231 230 230 231 232 232 231 230 230 232 232 232 233 234 235 236 238 241 244 246 248 249 249 248 247 246 245 246 246 247 247 247 247 247 248 248 249 251 252 254
288 286 284 282 280 277 275 273 271 270 269 268 268 266 263 262 261 260 259 258 258 258 256 252 248 251 251 243 237 236 236 234 234 233 233 231 231 231 233 233 233 231 232 233 233 233 234 235 236 237 238 240 243 245 247 249 249 248 247 247 246 246 247 248 248 249 249 249 249 249 250 251 252 254
289 287 285 283 280 278 275 272 270 268 266 265 264 263 262 261 259 258 256 256 257 256 256 253 246 244 248 245 239 237 238 237 235 233 233 233 233 233 233 233 233 232 233 235 235 234 235 237 238 239 240 241 242 243 245 247 248 248 248 248 248 248 248 249 250 250 251 252 252 252 253 254 255 255
291 288 286 284 281 278 275 272 269 266 264 262 261 260 259 258 258 257 255 254 254 254 254 251 245 242 243 241 237 236 236 236 235 233 233 235 235 234 233 232 232 231 232 235 236 235 235 237 240 241 241 242 242 243 244 246 247 247 248 249 250 250 250 250 250 251 252 253 254 254 255 256 257 257
293 290 287 284 281 278 276 272 268 265 262 260 258 257 257 255 255 254 254 253 251 251 251 249 244 244 245 239 232 232 233 234 234 233 233 235 237 235 232 231 231 231 231 233 236 236 236 237 239 241 241 241 240 241 243 244 245 245 246 248 250 251 252 252 252 252 253 253 254 254 255 256 257 258
295 292 289 286 282 279 276 272 269 265 261 258 255 254 253 253 252 252 251 250 249 248 248 247 242 242 247 243 233 229 230 233 234 234 232 233 234 233 231 230 230 230 230 231 233 235 235 236 237 239 242 241 239 240 242 243 245 245 245 247 250 252 253 253 253 253 253 254 254 254 254 255 257 258
297 295 292 288 284 280 276 272 268 264 260 256 253 251 249 249 249 250 249 248 247 245 245 244 240 238 241 242 237 233 233 233 233 234 233 232 232 231 230 231 231 231 230 231 233 235 235 236 236 237 240 241 240 240 243 245 246 246 245 247 250 251 252 253 253 253 253 253 254 254 254 255 256 258
300 297 294 290 286 281 277 272 268 264 259 255 251 248 246 245 244 246 246 245 244 244 243 242 240 237 238 239 237 234 235 236 235 234 234 234 232 231 231 231 231 231 231 232 234 236 236 236 237 237 239 241 242 243 245 246 247 246 245 246 249 251 252 253 253 254 253 253 253 253 253 254 256 257
303 299 296 291 286 281 276 271 266 262 258 254 250 246 243 241 240 241 242 243 242 242 242 241 240 238 238 240 241 236 234 236 237 236 235 234 233 233 232 231 230 231 232 232 234 236 235 235 236 237 237 240 243 246 247 247 245 245 244 245 247 251 252 253 254 254 253 252 252 252 253 254 255 257
306 302 297 292 287 281 275 269 264 259 255 252 248 244 240 238 237 236 237 239 239 239 240 241 240 238 236 238 243 243 238 235 237 237 236 235 235 234 233 232 231 231 233 233 234 235 235 235 236 237 238 240 243 247 251 249 245 242 242 242 246 250 251 252 253 253 252 252 252 252 253 254 256 257
309 305 300 294 288 283 278 271 263 257 252 249 245 242 238 235 233 232 232 234 235 236 238 240 238 236 236 236 240 245 244 239 236 235 235 235 235 234 233 232 232 233 233 233 234 236 237 236 237 239 240 242 244 247 251 251 245 241 240 241 245 248 249 250 252 252 252 252 253 254 256 257 257 258
315 311 305 298 291 285 281 275 267 259 252 247 243 240 236 233 230 229 228 229 231 232 234 236 233 232 237 239 238 242 245 243 238 234 233 234 234 234 233 232 232 232 232 232 233 235 236 237 238 240 241 243 244 246 248 248 244 241 240 242 245 247 248 249 252 253 253 254 255 257 259 259 260 262
320 315 309 302 294 287 283 278 271 262 254 247 242 238 234 231 227 226 225 226 228 229 231 233 230 229 233 238 237 238 242 243 242 238 235 234 234 234 232 231 231 231 231 231 232 234 237 237 237 240 242 243 245 246 245 244 241 239 240 243 246 248 249 251 253 254 255 256 257 259 260 261 262 265
326 321 315 307 298 291 286 281 275 265 256 248 242 237 233 229 226 224 223 224 225 227 228 229 229 228 231 236 237 234 236 240 241 240 237 235 234 234 232 231 230 230 230 230 230 232 236 238 238 240 240 242 247 246 239 236 237 239 242 246 248 249 250 252 254 255 256 257 259 260 261 262 264 265
332 329 323 314 305 297 291 285 278 268 257 250 245 239 233 228 225 223 222 223 224 225 226 227 228 227 228 234 238 236 235 237 237 237 237 235 234 234 234 233 232 231 231 230 229 230 233 236 240 241 240 243 248 244 233 230 234 238 242 246 248 250 251 253 255 256 257 259 260 261 262 264 265 266
338 335 332 325 317 309 301 292 283 272 260 252 248 243 235 229 225 223 223 223 224 225 225 225 226 226 225 229 235 237 237 238 236 235 235 235 234 233 234 236 235 233 231 231 230 229 230 233 237 241 241 244 245 237 228 229 234 238 241 245 246 249 250 251 253 255 257 259 261 262 264 265 267 268
343 340 336 332 325 318 310 300 287 277 267 258 253 247 239 232 227 224 224 225 225 225 225 223 224 225 224 225 230 234 235 237 237 234 233 233 234 234 234 236 237 234 232 232 231 230 230 231 233 236 240 245 242 233 229 234 238 241 245 248 248 250 250 250 252 255 257 260 261 263 265 267 268 268
347 345 341 339 336 331 325 316 301 286 276 267 261 254 245 237 230 226 225 227 227 227 225 222 222 223 221 222 226 229 231 234 236 236 234 232 232 233 235 236 236 234 232 232 232 231 229 230 231 234 238 243 242 235 236 240 242 244 246 248 249 251 251 252 254 256 257 259 262 264 267 269 269 268
352 352 349 347 344 340 336 331 322 307 290 277 270 263 252 242 235 230 228 229 229 228 226 223 221 221 221 224 227 227 228 231 235 236 236 234 232 232 233 235 235 234 232 231 233 232 230 229 230 232 235 238 239 238 242 246 246 247 247 247 248 250 252 254 256 257 258 260 263 266 269 270 270 269
356 356 355 351 347 344 339 336 333 324 309 291 278 268 259 248 240 235 233 232 230 229 227 224 220 219 221 226 228 228 228 231 235 237 237 236 234 233 233 234 234 234 233 232 232 233 231 230 230 231 233 236 237 240 243 246 247 249 250 250 252 254 256 256 257 258 259 261 263 266 268 267 267 267
359 359 357 354 351 348 345 342 340 335 327 312 291 273 261 252 244 239 236 235 232 230 228 225 221 219 220 223 226 228 229 229 232 237 237 236 234 234 234 235 235 234 235 235 234 234 233 233 233 233 233 236 239 242 245 246 247 249 251 253 255 256 257 258 259 259 259 259 261 263 262 261 262 265
1 1 360 357 355 353 351 348 346 346 341 328 314 293 267 252 247 244 241 238 235 231 229 227 223 221 222 224 226 229 232 233 234 237 236 233 233 234 235 237 237 236 236 237 237 236 234 234 234 234 232 233 236 240 243 245 247 248 249 251 253 255 257 259 259 258 257 257 260 260 259 260 263 266
2 2 3 2 359 357 355 353 352 354 352 348 357 351 306 254 240 241 242 241 239 234 231 230 227 224 224 227 228 228 232 235 238 240 236 228 225 229 233 236 238 238 237 237 238 238 236 235 235 235 234 233 234 236 239 243 246 247 247 247 249 252 255 256 255 253 252 254 256 257 258 261 263 265
4 4 5 5 4 1 358 357 356 358 357 354 23 31 12 298 242 236 235 233 233 232 231 230 229 226 226 229 229 226 224 227 232 237 237 229 222 222 228 232 235 237 238 237 237 237 238 238 237 237 237 236 235 237 239 242 244 246 246 246 246 248 251 252 250 248 249 251 254 256 258 260 261 263
7 6 7 8 8 6 3 0 358 358 359 354 338 48 54 38 334 259 241 230 227 232 233 232 230 228 227 229 229 225 224 226 230 233 237 236 231 230 234 235 233 233 234 235 235 234 234 235 236 237 238 237 236 236 238 241 242 242 242 243 244 246 248 248 248 248 250 253 255 258 259 261 262 263
9 9 9 10 10 10 8 6 2 358 358 357 344 300 208 88 46 341 264 240 234 236 237 235 233 232 231 231 230 227 226 231 237 237 236 239 240 239 240 238 234 230 229 230 231 230 228 228 230 233 236 237 236 235 237 239 240 239 241 244 247 249 251 252 253 254 255 255 256 257 258 261 264 267
11 11 11 11 12 12 11 10 8 4 360 357 351 330 269 233 220 219 250 251 242 239 238 236 235 234 234 235 236 234 233 236 240 240 238 240 241 239 235 233 232 233 233 232 230 228 225 224 225 226 228 230 231 232 234 237 240 243 247 249 250 251 253 255 255 256 256 256 257 257 259 262 267 270
13 13 14 13 14 14 13 12 12 10 6 2 358 350 320 267 243 231 230 237 242 241 241 238 234 234 234 236 238 240 239 240 241 241 239 240 243 241 236 232 231 232 233 233 232 229 226 224 224 223 222 224 227 231 234 238 242 246 249 251 251 252 253 254 255 255 256 257 258 260 262 265 268 269
14 14 15 15 15 16 16 15 14 13 11 8 4 359 350 325 283 251 238 237 239 240 241 239 235 234 235 236 238 241 243 243 241 239 237 239 244 248 248 247 247 243 237 234 235 234 232 231 231 232 232 233 235 237 240 242 245 246 248 250 252 253 254 255 255 256 257 259 261 263 264 266 267 267
14 15 16 16 16 17 18 18 17 16 15 13 10 6 3 358 342 302 259 246 245 245 247 249 246 242 239 239 239 241 244 245 244 241 238 238 242 246 248 250 253 253 249 246 245 245 243 241 239 239 241 242 243 244 246 248 249 250 250 251 251 251 252 253 254 255 256 258 260 261 263 264 265 266
14 15 16 17 17 18 18 19 19 18 17 17 15 12 7 4 358 342 304 267 254 251 251 253 254 253 250 247 244 243 244 246 247 246 242 241 243 245 246 248 252 255 256 255 254 252 250 249 247 246 246 247 249 250 251 252 253 252 252 251 250 250 250 250 251 252 253 255 257 260 262 263 265 267
12 14 16 17 18 19 19 19 20 20 19 19 18 16 11 7 3 357 344 314 279 264 258 255 253 254 255 254 251 248 247 248 249 249 248 246 246 248 249 251 252 253 252 252 251 250 250 251 252 252 252 252 253 253 254 254 255 255 254 253 251 250 250 250 251 252 254 257 259 262 263 265 266 268